Location: Oberkirch
(48.5323°N, 8.0787°E)
Time: 11:45:01
(UTC+00:00)

CUBEBUG 2 - Pass Details

Date: 16 March 2026
Orbit: 548 x 627 km, 97.9° (Epoch: 13 April)

Event Time Altitude Azimuth Distance (km) Brightness Sun altitude
Rises 03:39:34 0° 355° (N) 2,895 ? -20.2°
Reaches altitude 10° 03:43:14 10° 323° (NW) 1,998 ? -19.7°
Enters shadow 03:43:26 10° 320° (NW) 1,974 ? -19.6°
